Regional Weather Roundup
Issued by NWS Bismarck, ND

Home | Current Version | Previous Version | Text Only | Print | Product List | Glossary On
Versions: 1 2 3 4 5 6 7 8 9 10 11 12 13 14 15 16 17 18 19 20 21 22 23 24 25 26 27 28 29 30 31 32 33 34 35 36 37 38 39 40 41 42 43 44 45 46 47 48 49 50
000
ASUS43 KBIS 210902
RWRBIS

NWR BROADCAST TEXT
NATIONAL WEATHER SERVICE BISMARCK ND
300 AM CST SUN JAN 21 2018

NOTE: "FAIR" INDICATES FEW OR NO CLOUDS BELOW 12,000 FEET WITH NO
SIGNIFICANT WEATHER AND/OR OBSTRUCTIONS TO VISIBILITY.


CITY           SKY/WX    TMP DP  RH WIND       PRES   REMARKS
WILLISTON      FAIR       9   6  88 CALM      29.98R
MINOT          FAIR      20  16  84 SW5       29.97R WCI  13
MINOT AFB      CLEAR     14  11  89 NW5       29.96R WCI   6
BISMARCK       FAIR      18  16  92 CALM      30.00R
DICKINSON      FAIR      21  16  81 W10       29.94F WCI  10
GARRISON         N/A     13  11  92 W3        29.98R
HETTINGER ARPT CLOUDY    23  17  78 W3        29.98R
JAMESTOWN      FAIR      22  19  89 NW7       29.97R WCI  13
CARRINGTON     FAIR      23  19  86 NW9       29.99R WCI  13
LINTON           N/A     25  21  86 CALM      29.99S
OAKES            N/A     28  28 100 NW5       29.98R
TIOGA          FAIR      12  12 100 CALM      29.97S
$$

CITY           SKY/WX    TMP DP  RH WIND       PRES   REMARKS
GRAND FORKS    FAIR      19  17  92 W8        29.98R WCI   9
GRAND FORKS AF FAIR      21  17  86 NW7       29.99R WCI  12
DEVILS LAKE    FAIR      15  13  91 NW6       29.98R WCI   6
FARGO          FAIR      26  23  88 NW5       29.97S
CANDO          FAIR      14  14 100 W5        29.99R WCI   6
CAVALIER         N/A     23  23 100 N13       30.00R WCI  11
GWINNER          N/A     30  27  86 NW8       29.97R
ROLLA          FAIR      18  18 100 NW9       29.96R WCI   6
WALHALLA       FAIR      23  25 100 NW7       30.00R WCI  15
$$

CITY           SKY/WX    TMP DP  RH WIND       PRES   REMARKS
ABERDEEN       CLOUDY    32  27  81 CALM      29.98R
MOBRIDGE       MOCLDY    28  24  85 N8        29.94S WCI  20
BUFFALO          N/A     27  20  75 W6        29.91R
RAPID CITY     LGT SNOW  30  27  88 W6        29.99R FOG
GLASGOW        CLEAR     17  14  88 SE6       29.96R WCI   9
WOLF POINT     CLEAR      5   0  79 CALM      29.99R
GLENDIVE       CLEAR     14  11  87 S5        30.00R WCI   6
MILES CITY     PTCLDY    16  14  92 SW5       30.00R WCI   9
BAKER          MOCLDY    16  14  92 CALM      29.98R
$$

CITY           SKY/WX    TMP DP  RH WIND       PRES   REMARKS
BILLINGS       PTCLDY    25  17  72 SW14      30.00R WCI  13
GREAT FALLS    CLEAR     26  17  68 S14       29.96S WCI  14
$$




USA.gov is the U.S. government's official web portal to all federal, state and local government web resources and services.